Jackson, KY

2:46 AM EDT on August 27, 2016 (GMT -0400)
Carroll

Weather History for KJKL - September, 2014

Change the Weather History Date:

Monday, September 8, 2014

  Actual Average Record
Temperature  
Mean Temperature 72 °F 71 °F  
Max Temperature 83 °F 81 °F 94 °F (2007)
Min Temperature 60 °F 61 °F 51 °F (1986)
Degree Days  
Heating Degree Days 0 0  
Month to date heating degree days 0 0  
Since 1 July heating degree days 3 2  
Cooling Degree Days 7 6  
Month to date cooling degree days 80 57  
Year to date cooling degree days 1081 1035  
Growing Degree Days 21 (Base 50)    
Moisture  
Dew Point 63 °F    
Average Humidity 74    
Maximum Humidity 90    
Minimum Humidity 58    
Precipitation  
Precipitation 0.00 in 0.10 in 3.20 in (2004)
Month to date precipitation 1.50 0.85  
Year to date precipitation 39.80 34.40  
Snow  
Snow 0.00 in 0.00 in - ()
Month to date snowfall 0.0 0.0  
Since 1 July snowfall 0.0 0.0  
Since 1 September snowfall 0.0 0.0  
Snow Depth 0.00 in    
Sea Level Pressure  
Sea Level Pressure 30.07 in    
Wind  
Wind Speed 1 mph (ESE)    
Max Wind Speed 7 mph    
Max Gust Speed 13 mph    
Visibility 10 miles    
Events      
T = Trace of Precipitation, MM = Missing Value Source: NWS Daily Summary

Daily Weather History Graph

Daily Weather History Graph

Search for Another Location

Airport or City:

Trip Planner

Search our weather history database for the weather conditions in past years. The results will help you decide how hot, cold, wet, or windy it might be!

Date:

Astronomy

Sep. 08, 2014 Rise Set
Actual Time 7:09 AM EDT 7:51 PM EDT
Civil Twilight 6:42 AM EDT 8:18 PM EDT
Nautical Twilight 6:11 AM EDT 8:49 PM EDT
Astronomical Twilight 5:39 AM EDT 9:21 PM EDT
Moon 7:32 PM EDT (9/8) 6:32 AM EDT (9/8)
Length of Visible Light 13h 35m
Length of Day
12h 42m
Full, 100% of the Moon is Illuminated
Sep 8
Full
Sep 8
Full
Sep 15
Last Quarter
Sep 24
New
Oct 1
First Quarter

Hourly Weather History & Observations

Time (EDT) Temp. Heat Index Dew Point Humidity Pressure Visibility Wind Dir Wind Speed Gust Speed Precip Events Conditions
12:53 AM 62.1 °F - 57.9 °F 86% 30.09 in 10.0 mi Calm Calm - N/A   Clear
1:53 AM 63.0 °F - 59.0 °F 87% 30.07 in 10.0 mi Calm Calm - N/A   Mostly Cloudy
2:35 AM 62.1 °F - 57.9 °F 86% 30.09 in 10.0 mi Calm Calm - N/A   Scattered Clouds
2:53 AM 62.1 °F - 57.9 °F 86% 30.06 in 10.0 mi Calm Calm - N/A   Clear
3:53 AM 62.1 °F - 57.9 °F 86% 30.06 in 10.0 mi Calm Calm - N/A   Clear
4:53 AM 60.8 °F - 57.2 °F 88% 30.08 in 10.0 mi Calm Calm - N/A   Clear
5:53 AM 60.1 °F - 57.0 °F 90% 30.06 in 10.0 mi Calm Calm - N/A   Clear
6:53 AM 60.1 °F - 57.0 °F 90% 30.07 in 9.0 mi Calm Calm - N/A   Clear
7:53 AM 60.8 °F - 57.2 °F 88% 30.11 in 9.0 mi Calm Calm - N/A   Scattered Clouds
8:24 AM 62.1 °F - 59.0 °F 90% 30.11 in 10.0 mi Calm Calm - N/A   Mostly Cloudy
8:53 AM 62.1 °F - 59.0 °F 90% 30.09 in 10.0 mi Calm Calm - N/A   Overcast
9:18 AM 62.1 °F - 60.1 °F 93% 30.11 in 10.0 mi Calm Calm - N/A   Overcast
9:30 AM 63.0 °F - 60.1 °F 90% 30.11 in 10.0 mi Calm Calm - N/A   Overcast
9:38 AM 64.0 °F - 61.0 °F 90% 30.12 in 10.0 mi Calm Calm - N/A   Overcast
9:53 AM 64.9 °F - 61.0 °F 87% 30.09 in 10.0 mi Calm Calm - N/A   Overcast
10:46 AM 66.9 °F - 62.1 °F 84% 30.12 in 10.0 mi Calm Calm - N/A   Mostly Cloudy
10:53 AM 69.1 °F - 63.0 °F 81% 30.09 in 10.0 mi Calm Calm - N/A   Mostly Cloudy
11:53 AM 72.0 °F - 64.0 °F 76% 30.09 in 10.0 mi Calm Calm - N/A   Mostly Cloudy
12:53 PM 75.0 °F - 66.0 °F 73% 30.09 in 10.0 mi Calm Calm - N/A   Overcast
1:53 PM 78.1 °F - 68.0 °F 71% 30.07 in 10.0 mi Calm Calm - N/A   Scattered Clouds
2:20 PM 77.0 °F - 66.9 °F 71% 30.09 in 10.0 mi Calm Calm - N/A   Mostly Cloudy
2:44 PM 81.0 °F 84.1 °F 69.1 °F 67% 30.09 in 10.0 mi Calm Calm - N/A   Scattered Clouds
2:53 PM 78.1 °F - 68.0 °F 71% 30.05 in 10.0 mi Calm Calm - N/A   Partly Cloudy
3:53 PM 81.0 °F 83.3 °F 66.9 °F 62% 30.03 in 10.0 mi Calm Calm - N/A   Partly Cloudy
4:53 PM 82.0 °F 84.1 °F 66.0 °F 58% 30.02 in 10.0 mi Calm Calm - N/A   Scattered Clouds
5:49 PM 82.4 °F 85.4 °F 68.0 °F 62% 30.05 in 10.0 mi Calm Calm - N/A   Mostly Cloudy
5:53 PM 82.0 °F 84.9 °F 68.0 °F 62% 30.01 in 10.0 mi Calm Calm - N/A   Scattered Clouds
6:38 PM 78.1 °F - 66.9 °F 68% 30.05 in 10.0 mi Variable 5.8 mph - N/A   Mostly Cloudy
6:53 PM 75.9 °F - 66.0 °F 71% 30.03 in 10.0 mi Calm Calm - N/A   Overcast
7:25 PM 73.9 °F - 64.9 °F 73% 30.06 in 10.0 mi Calm Calm - N/A   Overcast
7:53 PM 72.0 °F - 64.9 °F 78% 30.03 in 10.0 mi Variable 3.5 mph - N/A   Partly Cloudy
8:53 PM 70.0 °F - 64.9 °F 84% 30.04 in 10.0 mi ESE 3.5 mph - N/A   Clear
9:53 PM 70.0 °F - 66.0 °F 87% 30.05 in 10.0 mi ESE 4.6 mph - N/A   Clear
10:53 PM 69.1 °F - 66.9 °F 93% 30.05 in 10.0 mi Calm Calm - N/A   Clear
11:53 PM 69.1 °F - 66.9 °F 93% 30.06 in 7.0 mi Calm Calm - N/A   Mostly Cloudy